Theta_e
295 295 295 295 295 295 295 296 296 297 298 299 300 300 301 301 301 301 301 301 300 301 300 300 301 303 303 304 305 306 308 309 307 311 315 316 320 324 323 320 325 325 323 323 322 322 324 321 321 321 317 317 316 312
294 294 295 295 294 295 295 296 296 297 298 298 299 300 301 302 301 301 301 300 300 300 301 301 301 301 302 303 305 307 309 311 307 309 310 310 320 323 322 324 323 326 322 326 324 324 317 315 315 313 313 312 312 310
294 294 295 294 294 294 294 295 296 297 298 299 300 301 301 301 301 301 301 301 301 302 301 299 302 304 304 305 306 310 311 311 313 312 315 314 319 320 323 325 325 323 321 322 320 316 314 312 312 311 311 311 311 310
294 294 294 294 294 294 294 296 296 297 298 299 300 301 301 301 301 301 301 301 302 302 303 303 304 304 306 307 307 307 310 311 311 312 315 315 316 315 319 321 322 321 319 317 316 313 312 311 310 310 310 309 309 306
294 294 294 294 294 294 295 295 296 297 298 299 300 302 301 301 301 301 301 302 302 302 305 304 303 305 306 307 306 308 308 309 310 312 311 311 311 312 313 316 320 317 318 319 319 313 312 308 307 307 305 304 303 302
293 293 294 294 294 295 295 295 296 297 298 299 300 301 302 301 300 301 301 303 302 302 303 306 302 303 306 306 306 307 307 307 307 307 308 308 307 310 317 320 319 315 313 311 312 308 306 306 305 303 302 300 300 299
293 294 294 294 294 295 295 295 297 297 297 299 300 302 301 301 301 299 301 302 301 303 303 306 306 302 304 303 303 306 305 306 305 305 307 307 308 312 316 320 317 312 309 307 306 306 305 304 302 301 300 299 298 297
293 294 294 294 295 295 295 295 296 296 298 299 301 302 302 302 301 301 303 303 304 303 304 307 308 304 303 304 305 303 306 304 304 305 306 306 308 311 319 317 314 310 308 308 305 304 303 302 301 300 299 298 297 296
293 293 294 294 295 294 295 295 296 297 298 300 302 302 302 301 301 302 302 304 304 303 305 306 309 308 301 303 303 304 303 307 302 305 305 306 307 314 316 316 313 312 309 305 304 303 302 302 301 300 299 298 297 296
293 293 294 295 294 294 295 296 296 296 298 300 302 301 299 302 300 302 304 303 303 304 304 307 305 308 304 302 305 305 303 305 307 305 303 306 311 310 311 314 311 307 305 304 304 303 302 302 301 301 300 298 297 296
293 294 295 295 294 295 295 296 296 297 299 300 298 298 301 301 302 301 303 304 304 308 306 306 303 305 303 305 304 304 303 304 306 306 307 306 310 310 312 311 308 308 308 306 303 302 302 301 301 301 300 299 298 296
293 294 294 294 294 293 296 296 296 296 297 298 299 300 301 301 304 305 304 308 308 308 307 305 304 304 304 304 306 305 308 307 312 306 309 313 312 310 313 312 309 310 308 306 304 303 302 301 301 301 300 299 298 296
293 293 294 295 294 295 296 296 296 296 298 302 302 303 305 302 305 310 311 309 311 309 304 306 308 303 303 306 305 305 308 309 307 306 314 315 310 312 311 310 310 310 309 306 305 303 302 302 301 300 299 298 298 296
292 293 294 294 293 296 296 295 295 297 300 302 303 303 305 309 304 302 306 307 307 308 305 306 304 303 301 304 303 307 307 307 311 311 314 311 310 310 311 311 311 309 305 304 303 303 302 301 300 299 298 297 297 296
293 293 293 295 296 295 295 295 297 300 301 302 303 304 306 305 305 305 305 306 308 307 306 307 306 304 304 304 303 303 307 313 311 312 307 307 307 308 310 311 312 308 304 302 302 301 301 300 299 298 297 297 296 295
293 293 296 295 294 293 296 298 301 301 303 303 303 303 303 305 306 305 306 308 307 307 305 307 307 308 308 305 306 308 309 310 309 308 307 309 311 307 308 307 303 302 301 300 300 300 299 299 298 297 297 296 295 295
293 293 293 293 293 296 299 301 303 304 305 305 304 302 302 301 304 304 302 305 306 307 309 307 310 310 306 308 310 310 309 307 309 306 306 307 308 308 307 304 301 300 299 299 298 298 297 297 297 296 294 295 295 295
293 293 293 293 295 297 299 303 303 304 305 304 304 305 304 303 304 302 302 302 306 309 310 310 308 311 310 311 309 306 308 306 304 302 303 305 306 305 301 301 301 300 299 298 298 297 296 295 294 294 295 295 295 295
292 293 293 297 297 297 299 303 304 305 305 306 305 304 305 306 304 303 303 303 305 305 305 308 308 310 307 307 308 306 305 307 303 301 302 306 306 303 300 300 300 299 297 297 296 296 296 296 295 295 295 294 294 294
293 294 297 297 298 298 302 304 304 304 304 304 303 303 306 306 305 306 305 305 307 308 309 309 308 306 306 305 306 306 303 301 301 304 307 306 303 300 299 298 298 297 297 297 296 296 295 294 295 295 295 295 293 293
294 298 297 299 299 298 301 303 303 301 301 303 302 303 303 304 307 308 306 303 306 308 308 305 306 304 304 304 305 301 299 301 304 307 306 304 302 301 299 298 298 298 297 296 295 295 295 295 295 295 294 294 294 294
294 296 297 298 301 303 304 303 301 300 302 302 303 303 304 305 305 305 305 305 308 306 305 305 305 306 305 304 303 304 304 305 304 303 304 304 301 300 299 299 298 297 297 297 297 296 296 296 296 296 295 295 294 294
297 298 299 299 302 296 298 301 303 303 305 304 304 307 306 306 306 307 307 305 305 307 308 305 304 305 303 303 304 305 305 304 303 303 303 302 302 303 303 302 299 298 297 298 298 298 297 297 297 296 296 294 294 294
298 299 301 301 302 301 302 303 303 306 306 305 306 309 308 306 305 307 309 305 305 305 305 303 302 300 300 301 301 303 304 303 301 301 301 301 301 301 301 301 300 300 300 299 299 298 295 295 294 293 292 292 292 292
298 299 298 296 298 303 305 305 305 305 308 306 307 306 307 304 307 306 308 306 305 304 304 303 302 301 301 301 301 303 304 304 302 300 302 302 301 300 300 300 300 301 301 299 295 294 293 293 293 292 292 292 291 291
298 300 298 304 306 306 306 307 307 307 306 305 307 306 306 307 309 308 307 306 305 304 304 306 306 306 306 305 303 303 305 306 306 304 304 303 303 302 298 296 295 297 298 298 296 294 293 293 293 293 292 292 292 292
300 301 301 302 303 303 305 305 304 304 307 308 307 308 307 312 311 308 306 304 305 306 308 308 308 308 308 306 306 308 307 306 305 305 306 305 305 304 303 299 297 299 298 297 296 296 295 294 294 293 293 292 292 292
300 300 301 299 301 302 305 305 307 306 305 306 307 308 309 308 308 305 305 308 309 307 307 307 307 308 307 307 308 307 307 306 305 304 303 300 300 300 300 300 300 299 298 297 297 296 296 295 295 295 294 294 294 293
301 300 301 303 303 304 304 306 307 306 305 307 307 309 308 307 306 306 306 308 308 307 306 306 307 307 308 307 307 307 305 306 305 304 303 299 298 300 300 300 300 299 298 298 297 296 296 295 295 295 294 294 293 293
301 301 303 304 304 306 305 302 302 305 307 307 307 306 305 304 305 306 307 308 308 307 306 306 307 306 306 306 307 306 305 304 305 304 300 298 299 301 300 300 300 299 298 298 297 296 295 295 295 294 293 292 292 291
300 301 302 302 302 305 305 303 303 304 305 306 305 304 304 304 305 306 306 306 307 307 306 305 307 307 305 305 305 304 304 303 302 305 305 302 301 301 301 300 299 299 298 298 297 296 296 295 295 293 292 291 291 291
300 302 302 302 299 300 300 303 304 304 302 303 304 303 303 304 306 304 304 306 306 305 306 306 307 307 306 306 306 306 304 302 302 302 301 301 301 301 301 300 299 299 299 298 297 296 296 295 294 293 291 290 290 290
303 303 304 305 299 303 304 303 303 300 302 300 301 301 302 304 306 305 305 305 304 305 304 304 304 305 306 307 306 306 306 306 305 303 302 301 301 302 300 301 301 298 297 296 295 295 295 294 293 292 291 291 290 289
Wind_Speed
16 18 19 20 22 23 24 24 25 27 28 28 29 29 27 24 23 20 17 13 5 3 13 12 13 14 14 8 4 10 7 2 2 4 3 3 1 2 2 2 0 3 4 3 3 3 2 5 4 4 4 11 16 17
16 17 19 20 22 23 24 25 26 28 27 29 29 29 26 23 20 17 8 13 13 5 10 29 34 34 25 22 9 3 4 10 3 3 2 3 2 3 1 2 3 4 3 3 4 2 5 6 8 10 14 20 13 21
16 17 19 20 22 23 24 24 25 26 28 28 29 28 25 21 18 14 13 12 6 3 8 3 7 18 23 16 14 4 3 3 5 8 2 3 2 3 3 4 2 6 3 5 3 9 12 16 19 18 16 21 18 20
17 17 19 20 23 23 24 24 25 25 29 29 29 28 24 20 18 15 12 13 11 3 3 7 13 18 20 17 22 15 13 9 6 3 1 2 3 4 4 3 4 3 4 7 12 11 19 16 16 21 21 22 23 19
17 17 19 20 22 23 24 25 26 26 29 28 28 28 24 20 16 16 16 5 7 3 3 7 24 9 19 23 23 20 6 5 2 4 2 3 1 4 2 3 5 4 3 2 4 5 15 7 12 18 21 19 20 23
17 19 20 20 21 23 24 25 26 29 29 29 29 27 22 17 13 8 2 7 7 11 3 4 6 7 23 27 14 8 5 2 1 1 3 4 3 3 3 3 10 6 10 5 6 13 18 15 16 17 21 18 18 17
17 19 20 19 22 24 24 26 28 29 30 29 27 21 14 9 8 4 3 5 11 11 2 4 5 5 10 7 4 4 5 3 3 2 4 3 5 5 3 3 6 12 17 17 18 22 15 8 12 16 20 18 27 24
17 19 19 19 22 24 24 25 27 28 29 28 21 16 8 4 4 5 3 6 12 4 2 3 4 5 7 4 4 4 4 4 5 3 4 4 3 3 5 7 11 16 16 12 13 15 18 16 17 17 21 20 17 15
17 18 18 19 22 22 23 24 26 27 30 22 17 6 0 0 2 5 15 11 4 2 2 2 3 3 4 3 2 4 3 4 3 3 3 3 4 5 2 6 12 9 9 16 16 17 16 17 15 14 15 15 16 12
17 17 18 21 21 21 23 24 23 28 26 16 6 3 2 2 15 12 0 1 1 2 2 3 1 3 2 3 3 4 2 2 3 3 3 4 3 3 5 3 8 14 17 20 19 12 14 13 13 11 13 11 13 11
16 17 18 20 21 21 22 20 20 26 10 8 5 2 9 10 4 1 2 2 1 2 2 3 3 3 1 2 3 0 2 2 3 4 3 2 3 4 4 7 7 8 9 8 11 12 12 16 14 13 12 13 18 18
16 16 17 19 19 19 17 17 19 20 14 12 16 12 4 2 1 2 2 1 1 2 2 1 3 3 3 0 2 3 2 2 1 2 3 2 3 6 1 7 6 7 9 13 15 15 14 16 18 17 16 16 17 20
16 17 18 19 19 12 14 18 22 20 20 4 2 2 1 2 3 4 5 1 2 3 2 3 4 1 4 2 1 2 4 2 1 4 2 2 4 6 3 6 6 5 9 12 14 19 20 19 20 21 18 20 21 20
17 19 20 20 15 11 19 24 22 16 5 1 2 4 1 2 1 3 2 3 4 3 4 2 3 1 2 4 2 3 2 1 3 3 2 2 6 8 4 3 10 10 11 13 14 19 20 21 19 20 20 22 22 18
18 21 21 7 10 18 23 23 18 7 3 2 1 2 1 2 3 2 3 3 3 3 3 3 2 2 2 2 2 2 5 3 3 2 2 4 8 4 2 6 11 9 10 12 17 17 19 21 20 19 21 23 23 23
17 17 3 9 20 22 22 16 2 5 2 2 2 2 2 2 3 3 2 3 2 3 2 1 2 3 2 2 3 3 3 1 2 1 4 3 1 4 4 6 10 14 13 14 17 20 20 19 19 20 23 24 23 24
13 5 12 19 22 23 9 1 2 3 2 2 3 2 2 3 4 3 2 3 4 3 2 2 3 1 2 2 2 2 1 1 1 1 2 4 2 3 6 10 14 18 15 16 20 19 19 23 25 22 15 20 22 21
7 15 18 18 19 16 3 2 2 2 3 3 1 2 2 3 3 3 3 2 2 2 1 1 1 2 1 1 3 2 1 0 1 2 2 3 3 5 12 11 18 19 15 16 18 20 22 21 17 15 23 22 21 19
17 20 16 9 8 6 3 2 3 2 3 2 2 2 2 3 4 4 3 3 4 3 1 1 1 1 3 3 3 2 2 2 1 1 2 3 1 11 13 19 23 20 18 19 20 18 20 25 25 26 26 25 23 21
15 12 6 11 5 2 2 3 2 2 3 2 2 2 3 3 2 2 1 2 1 0 1 1 3 3 3 3 2 2 1 2 3 1 1 2 8 17 15 16 15 20 18 19 20 23 21 20 23 25 24 23 23 20
7 2 8 3 3 5 2 3 2 3 3 2 3 1 3 2 2 1 1 1 2 1 2 3 3 2 2 1 1 3 4 4 2 1 3 4 5 14 15 19 21 19 16 14 14 15 21 19 23 21 19 20 19 19
3 7 3 2 3 3 3 6 3 3 1 2 3 1 2 2 2 2 2 2 1 2 2 2 2 2 2 2 0 2 7 10 12 11 13 10 4 5 9 15 16 10 15 18 20 19 20 20 21 20 20 19 19 21
4 3 2 2 2 2 5 1 1 2 1 2 2 2 2 2 2 0 2 1 2 2 1 1 3 5 5 4 7 9 9 11 7 12 13 10 8 12 11 10 15 16 10 14 18 19 17 17 20 20 18 14 15 20
3 2 2 2 3 3 2 2 2 2 2 1 1 2 2 2 2 2 1 2 3 3 2 2 5 3 4 5 3 3 5 9 9 9 15 15 9 10 12 11 13 17 19 18 16 19 18 18 18 24 22 20 22 22
2 2 2 3 3 2 2 2 2 1 3 1 1 2 3 3 1 2 2 3 3 3 2 2 2 2 3 1 0 2 5 7 9 3 12 13 13 8 7 6 7 9 15 18 18 22 22 23 25 24 22 22 22 23
2 3 5 1 2 2 2 2 3 2 2 2 1 2 2 3 3 2 3 2 2 1 1 3 3 3 2 3 2 3 10 9 6 6 9 15 14 13 8 5 4 7 15 22 27 24 24 25 24 22 19 20 21 21
2 2 2 3 3 2 2 3 3 1 2 1 1 2 2 2 0 2 3 2 2 4 3 3 4 8 8 12 15 9 10 8 7 12 12 13 17 19 19 16 12 18 21 23 27 28 28 27 26 23 19 20 23 22
3 2 1 3 3 2 2 2 2 2 2 2 1 1 2 3 2 2 4 4 6 3 3 4 3 5 11 12 4 6 8 9 7 3 7 8 14 21 25 18 14 19 21 22 22 23 25 25 25 23 19 17 19 20
3 3 1 3 3 3 1 1 2 1 1 2 2 2 2 2 3 2 4 2 6 3 0 2 1 4 4 8 7 5 2 12 10 3 3 0 2 11 16 16 16 18 20 19 17 18 20 21 21 22 20 18 17 17
3 3 2 3 2 0 2 2 3 2 2 1 1 0 2 2 10 13 11 6 3 1 3 1 5 5 9 8 7 12 8 6 14 18 7 6 12 16 19 21 21 22 22 20 19 19 15 18 20 21 18 17 17 18
2 2 3 2 3 3 5 4 3 2 2 3 3 3 3 3 3 19 17 8 7 6 5 4 4 4 5 5 3 5 9 8 10 20 18 19 18 18 21 22 22 22 22 21 20 21 19 19 22 23 23 22 20 19
3 4 2 2 4 4 2 2 2 2 0 1 2 2 2 3 2 3 18 11 11 12 11 8 5 2 5 6 4 5 10 10 2 9 18 19 20 18 14 13 15 18 18 19 21 23 24 24 25 26 27 23 20 18
1 1 2 3 4 5 3 3 1 1 2 1 1 1 1 2 3 2 7 16 9 7 8 7 5 5 4 7 9 11 11 11 11 7 8 19 23 20 22 18 14 17 19 21 21 20 21 22 22 24 23 21 18 17
Wind_Direction
313 318 322 323 323 327 326 327 327 329 331 330 327 328 326 324 325 329 306 311 264 264 285 265 270 284 288 288 274 302 312 27 300 333 341 347 339 60 54 172 352 74 87 49 54 87 92 357 70 186 186 107 121 107
312 317 317 321 322 327 325 325 326 328 332 333 329 327 327 324 323 330 283 310 296 236 269 283 280 272 260 261 273 270 268 303 284 312 324 300 332 10 177 60 348 61 97 106 45 57 354 31 105 82 106 111 120 110
310 311 315 320 322 325 323 322 326 330 329 330 329 328 327 322 323 318 309 308 288 268 287 306 272 305 301 280 275 284 272 286 293 301 247 247 9 332 32 21 67 52 58 97 90 29 66 76 81 86 96 105 107 109
311 314 317 320 321 323 320 321 325 329 327 330 328 329 327 323 319 312 299 302 282 262 285 284 301 306 313 312 307 264 269 297 267 294 309 349 3 354 23 34 41 22 40 85 93 100 77 59 80 99 94 97 99 91
309 310 311 318 320 320 320 320 323 327 326 326 324 322 320 319 318 307 294 243 28 342 302 293 308 286 315 324 319 323 278 284 312 333 7 35 15 4 0 51 30 355 129 76 116 76 105 84 93 98 97 100 102 107
309 309 312 319 318 320 320 320 322 326 325 324 321 320 317 311 313 316 318 217 298 339 291 301 298 302 318 333 333 332 337 352 16 5 333 355 10 69 53 45 16 64 75 86 106 89 93 91 88 92 100 101 100 101
307 308 314 317 318 321 321 320 323 325 329 330 325 322 319 310 280 226 248 283 315 320 265 291 304 288 317 320 330 333 346 349 30 343 15 351 359 26 37 46 32 87 94 98 109 109 77 61 104 95 95 96 94 92
307 311 314 317 323 323 321 322 325 328 332 332 326 321 314 318 278 282 318 322 319 272 255 289 283 327 3 324 333 357 345 357 18 339 351 20 341 24 44 66 93 100 93 76 75 81 107 108 99 97 102 103 97 100
308 310 313 321 324 320 319 324 327 333 333 330 327 315 304 359 308 301 307 302 274 223 307 296 298 301 354 310 289 325 17 18 316 26 2 26 336 43 102 123 115 111 101 113 98 102 104 104 107 108 108 108 109 110
309 310 315 325 322 320 323 327 332 336 337 338 331 359 348 317 316 308 252 309 274 187 236 258 299 284 36 348 306 341 12 33 35 297 340 54 6 336 28 119 108 118 124 123 115 114 115 116 120 119 116 116 119 121
306 311 318 325 320 322 325 331 339 341 342 353 356 333 309 324 322 336 287 207 201 264 213 242 206 285 313 357 281 213 288 336 55 285 94 360 1 324 8 92 107 117 119 94 115 124 129 133 130 124 121 123 125 126
304 311 321 322 319 325 330 338 340 342 317 300 291 292 290 314 266 325 272 271 185 262 286 277 267 220 293 306 1 336 343 348 43 298 76 59 302 325 44 102 105 121 122 122 130 128 131 127 131 130 132 127 124 128
306 315 321 319 322 324 327 335 338 331 320 288 239 256 242 253 12 353 349 29 314 333 313 316 317 323 335 40 317 345 4 322 310 39 54 65 318 353 359 113 96 107 106 110 122 126 125 121 126 126 122 120 127 130
311 317 313 316 310 318 327 329 329 329 298 288 337 312 229 335 32 215 239 265 275 277 310 302 303 48 322 3 343 352 287 36 58 37 355 320 334 340 21 104 102 94 107 109 116 121 122 121 119 120 124 130 129 130
313 312 317 326 343 325 320 319 316 289 257 265 231 271 284 321 276 268 265 288 259 277 327 333 292 84 300 7 19 350 1 33 28 333 279 284 303 318 95 121 118 109 125 118 125 123 123 124 122 121 132 139 138 138
314 326 68 332 321 317 323 322 321 184 238 239 238 272 286 318 318 332 307 284 290 305 315 23 357 8 352 339 354 360 325 343 303 232 261 286 69 104 105 103 117 124 119 122 122 121 121 124 129 132 142 147 145 143
315 255 324 328 326 325 327 249 201 225 241 218 252 211 210 231 246 245 251 264 298 342 338 11 347 351 338 351 349 360 299 248 339 341 342 349 29 107 135 109 106 110 110 119 118 119 120 129 133 131 127 151 152 152
269 315 325 329 335 339 328 217 250 236 249 241 228 254 209 225 248 270 250 246 353 302 298 286 214 22 298 275 280 241 264 164 104 294 319 320 45 103 122 116 112 110 122 123 123 125 128 128 126 130 142 147 144 151
297 311 318 344 332 315 303 268 220 262 253 238 241 204 230 254 230 234 245 261 233 235 348 27 121 225 240 230 249 237 252 217 215 256 281 289 236 124 117 127 140 147 138 135 136 139 144 148 147 147 146 146 143 149
309 303 306 330 215 230 271 260 235 246 270 266 283 249 217 238 260 233 240 242 171 177 302 214 218 221 215 233 227 212 197 150 129 127 115 94 139 127 129 130 129 128 126 133 139 146 143 143 155 156 157 156 155 159
323 336 340 347 204 219 271 291 264 213 271 279 268 277 272 300 292 281 272 122 50 209 250 233 247 256 222 302 341 137 132 145 160 135 129 104 97 128 122 127 131 134 135 141 138 149 154 161 168 169 168 168 169 171
305 340 316 250 253 213 248 233 213 257 264 258 315 249 288 306 288 257 162 73 241 255 216 236 261 180 138 124 133 150 137 120 101 87 100 116 99 105 120 131 135 143 152 160 161 167 174 176 178 180 182 184 182 184
322 343 275 265 286 44 260 242 253 234 232 268 341 322 281 279 244 265 52 269 269 289 331 32 34 70 96 98 115 114 117 112 103 110 107 105 130 125 127 167 173 151 146 177 181 178 182 189 194 191 189 189 182 188
305 281 284 268 215 258 273 260 241 265 271 248 234 268 249 244 329 54 77 329 289 321 33 74 110 80 64 76 75 91 105 155 137 129 151 152 151 158 167 166 177 180 183 181 180 182 179 177 176 167 162 162 166 165
350 244 161 282 264 286 265 270 243 284 268 288 292 308 332 357 35 48 54 292 332 349 345 144 118 103 128 145 152 178 168 146 163 166 185 187 180 182 213 228 236 232 206 183 174 172 173 170 169 171 173 170 168 172
272 199 174 256 313 242 258 270 290 308 297 276 349 313 5 43 47 22 302 271 276 279 265 207 185 162 160 151 186 236 234 226 215 204 212 201 201 199 202 182 173 215 203 199 177 169 171 177 179 179 181 184 177 178
280 282 240 202 235 270 343 283 254 242 276 13 342 43 42 72 78 244 263 242 229 248 248 266 223 182 168 204 243 267 233 213 211 218 230 230 230 231 215 184 190 197 188 191 186 186 183 184 186 188 185 186 189 189
271 318 263 282 291 219 228 256 273 351 329 332 70 158 183 206 213 246 221 233 216 230 255 327 259 232 198 186 220 335 188 190 144 107 163 201 212 201 192 196 196 185 189 193 195 195 192 190 194 198 202 199 197 206
242 258 296 278 246 254 318 346 305 296 268 21 35 34 343 309 308 303 329 270 195 182 231 343 85 163 165 204 269 325 0 185 161 102 33 198 121 200 201 193 186 187 187 191 198 196 192 193 191 187 184 181 184 194
243 181 235 244 242 356 1 240 263 295 338 355 210 167 311 6 13 39 45 73 95 15 347 259 171 168 160 144 191 248 297 278 213 177 182 204 207 193 194 194 192 190 191 190 188 189 193 192 194 186 178 175 173 172
246 264 250 222 255 215 217 190 215 226 247 244 211 182 184 198 70 38 31 28 37 38 37 75 75 166 94 76 230 333 318 346 225 219 217 212 197 194 199 205 206 198 198 198 197 195 194 190 185 181 180 177 176 176
185 207 205 225 277 289 337 196 220 200 307 61 1 18 31 57 61 37 21 27 36 52 55 83 84 66 159 190 151 27 20 15 321 235 224 212 197 194 185 185 196 201 204 206 202 195 190 189 189 190 184 180 179 182
6 342 12 358 355 350 318 11 29 24 50 75 300 162 129 119 92 349 16 19 19 12 11 5 4 334 299 238 255 280 294 309 329 344 235 209 195 190 181 176 188 195 189 187 189 192 193 195 191 183 182 184 186 187